period_start,C,m1,H,J0,J1,J2,J3,J4,J5,JA,JB,JC,JD,JJ,JK,JN,#
2018-08-03 00:00:32,-0.00,0.21,0.00,26.02,29.97,32.91,13.84,46.48,1020.57,2016.96,3333.56,3022.01,3457.04,599.51,591.88,27.56,0000 0000 0000 0000 000000
2018-08-03 00:05:34,0.00,0.21,0.00,26.02,29.97,32.95,13.91,46.48,1020.55,2016.96,3333.48,3022.02,3457.02,600.12,592.49,27.61,0000 0000 0000 0000 000000
2018-08-03 00:10:35,0.00,0.21,0.00,26.03,29.97,32.92,13.78,46.42,1020.56,2016.96,3333.42,3022.02,3457.02,599.65,591.96,27.66,0000 0000 0000 0000 000000
2018-08-03 00:15:36,0.00,0.21,0.00,26.05,29.97,32.92,13.79,46.39,1020.54,2016.95,3333.24,3022.00,3457.00,599.72,592.02,27.71,0000 0000 0000 0000 000000
2018-08-03 00:20:37,0.00,0.21,0.00,26.05,29.97,32.93,13.91,46.69,1020.56,2016.96,3333.05,3022.00,3457.00,600.29,592.52,27.76,0000 0000 0000 0000 000000
2018-08-03 00:25:39,0.00,0.21,0.00,26.05,29.97,32.92,13.79,46.45,1020.55,2016.97,3333.06,3022.00,3457.00,599.90,592.10,27.81,0000 0000 0000 0000 000000
2018-08-03 00:46:59,-3333.30,0.00,0.00,25.49,30.02,29.95,13.63,45.68,1020.25,2020.13,3446.77,3075.26,3542.65,592.94,586.26,0.01,0000 0000 0000 0000 000000
2018-08-03 00:52:00,0.00,0.00,0.00,25.48,29.91,30.88,13.74,46.01,1020.49,2017.86,3438.64,3070.14,3537.48,599.63,592.98,0.06,0000 0000 0000 0000 000000
2018-08-03 00:57:01,0.00,0.00,0.00,25.52,29.81,31.55,13.80,46.20,1020.52,2017.88,3437.92,3069.99,3536.97,599.77,593.08,0.11,0000 0000 0000 0000 000000
2018-08-03 01:02:02,0.00,0.00,0.00,25.56,29.74,31.90,13.86,46.34,1020.52,2017.98,3437.76,3069.99,3536.92,600.18,593.38,0.16,0000 0000 0000 0000 000000
2018-08-03 01:07:03,0.00,0.00,0.00,25.60,29.67,32.07,13.81,46.39,1020.52,2017.99,3437.80,3069.99,3536.92,600.04,593.20,0.21,0000 0000 0000 0000 000000
2018-08-03 01:12:04,0.00,0.00,0.00,25.65,29.61,32.13,13.87,46.36,1020.53,2017.99,3437.81,3070.01,3536.93,600.60,593.43,0.26,0000 0000 0000 0000 000000
2018-08-03 01:17:06,0.00,0.00,0.00,25.71,29.57,32.17,13.82,46.53,1020.52,2018.03,3437.95,3070.10,3536.94,599.69,592.65,0.31,0000 0000 0000 0000 000000
2018-08-03 01:22:07,0.00,0.00,0.00,25.75,29.54,32.18,13.81,46.45,1020.52,2018.10,3437.96,3070.41,3536.94,599.69,592.46,0.36,0000 0000 0000 0000 000000
2018-08-03 01:27:08,0.02,0.00,0.00,25.81,29.52,32.14,13.78,46.47,1020.52,2018.29,3437.97,3070.59,3536.86,599.67,592.36,0.41,0000 0000 0000 0000 000000
2018-08-03 01:32:09,0.02,0.00,0.00,25.85,29.50,32.03,13.79,46.49,1020.52,2018.63,3437.95,3070.75,3536.80,599.73,592.43,0.46,0000 0000 0000 0000 000000
2018-08-03 01:37:10,0.01,0.00,0.00,25.89,29.50,31.95,13.81,46.52,1020.52,2018.76,3437.95,3070.80,3536.67,599.91,592.52,0.51,0000 0000 0000 0000 000000
2018-08-03 01:42:12,0.01,0.00,0.00,25.94,29.50,31.94,13.80,46.59,1020.53,2018.87,3437.95,3070.82,3536.44,599.83,592.26,0.56,0000 0000 0000 0000 000000
2018-08-03 01:47:13,0.01,0.00,0.00,25.98,29.51,31.95,13.80,46.63,1020.52,2018.91,3437.62,3070.63,3536.08,600.05,592.33,0.61,0000 0000 0000 0000 000000
2018-08-03 01:52:14,0.02,0.01,0.00,26.02,29.52,31.97,13.85,46.73,1020.53,2018.91,3437.12,3070.13,3536.00,599.91,592.21,0.66,0000 0000 0000 0000 000000
2018-08-03 01:57:15,-0.00,0.01,0.00,26.08,29.54,32.00,13.82,46.77,1020.53,2018.85,3437.02,3070.03,3536.00,599.91,592.07,0.71,0000 0000 0000 0000 000000
2018-08-03 02:02:16,-0.01,0.01,0.00,26.12,29.56,32.03,13.84,46.73,1020.54,2018.82,3437.01,3070.00,3535.98,600.25,592.38,0.76,0000 0000 0000 0000 000000
2018-08-03 02:07:18,-0.02,0.00,0.00,26.14,29.58,32.08,13.83,46.76,1020.53,2018.50,3436.99,3070.00,3535.42,600.04,592.16,0.81,0000 0000 0000 0000 000000
2018-08-03 02:12:19,0.00,0.00,0.00,26.18,29.61,32.11,13.74,46.63,1020.53,2018.40,3436.97,3070.00,3535.09,599.88,592.00,0.86,0000 0000 0000 0000 000000
2018-08-03 02:17:20,-0.01,0.00,0.00,26.22,29.63,32.17,13.79,46.67,1020.53,2018.18,3436.45,3069.93,3535.00,599.89,591.80,0.91,0000 0000 0000 0000 000000
2018-08-03 02:22:21,0.03,0.00,0.00,26.25,29.66,32.20,13.78,46.77,1020.54,2018.06,3436.02,3069.17,3534.30,599.73,591.57,0.96,0000 0000 0000 0000 000000
2018-08-03 02:27:23,0.00,0.01,0.00,26.29,29.69,32.21,13.78,46.69,1020.54,2018.03,3435.99,3069.00,3534.01,600.04,591.80,1.01,0000 0000 0000 0000 000000
2018-08-03 02:32:24,0.00,0.01,0.00,26.33,29.71,32.27,13.84,46.86,1020.52,2018.00,3435.78,3068.99,3533.98,599.93,591.56,1.06,0000 0000 0000 0000 000000
2018-08-03 02:37:25,0.02,0.01,0.00,26.37,29.75,32.29,13.75,46.77,1020.53,2018.00,3435.16,3068.82,3533.77,600.12,591.76,1.11,0000 0000 0000 0000 000000
2018-08-03 02:42:26,0.02,0.01,0.00,26.39,29.77,32.31,13.90,46.80,1020.53,2018.00,3435.01,3068.17,3533.07,600.39,591.91,1.16,0000 0000 0000 0000 000000
2018-08-03 02:47:27,0.03,0.01,0.00,26.42,29.80,32.36,13.76,46.80,1020.52,2017.99,3434.48,3067.86,3532.49,599.90,591.33,1.21,0000 0000 0000 0000 000000
2018-08-03 02:52:29,0.01,0.01,0.00,26.45,29.83,32.38,13.81,46.87,1020.53,2017.94,3434.01,3067.15,3532.00,600.09,591.45,1.26,0000 0000 0000 0000 000000
2018-08-03 02:57:30,0.04,0.01,0.00,26.48,29.86,32.40,13.91,46.92,1020.54,2017.63,3433.13,3066.40,3530.93,600.34,591.66,1.31,0000 0000 0000 0000 000000
2018-08-03 03:02:31,0.00,0.01,0.00,26.50,29.89,32.43,13.82,46.88,1020.53,2017.24,3432.10,3065.44,3529.98,600.00,591.37,1.36,0000 0000 0000 0000 000000
2018-08-03 03:07:33,0.01,0.01,0.00,26.52,29.92,32.48,13.80,46.96,1020.53,2017.11,3432.00,3065.05,3529.60,600.04,591.30,1.41,0000 0000 0000 0000 000000
2018-08-03 03:12:34,0.00,0.01,0.00,26.55,29.95,32.51,13.82,46.89,1020.52,2017.02,3431.93,3065.00,3529.02,599.90,591.12,1.46,0000 0000 0000 0000 000000
2018-08-03 03:17:35,0.01,0.01,0.00,26.58,29.98,32.54,13.75,46.96,1020.52,2017.00,3431.28,3064.98,3529.00,599.88,591.09,1.51,0000 0000 0000 0000 000000
2018-08-03 03:22:36,0.07,0.01,0.00,26.60,30.01,32.56,13.79,46.90,1020.52,2017.00,3430.57,3064.20,3528.02,600.11,591.26,1.56,0000 0000 0000 0000 000000
2018-08-03 03:27:37,0.02,0.02,0.00,26.62,30.04,32.60,13.80,46.94,1020.52,2016.99,3429.65,3063.07,3527.01,600.29,591.39,1.61,0000 0000 0000 0000 000000
2018-08-03 03:32:38,0.06,0.02,0.00,26.65,30.06,32.62,13.81,46.92,1020.52,2016.98,3428.85,3062.46,3526.25,599.72,590.86,1.66,0000 0000 0000 0000 000000
2018-08-03 03:37:40,0.05,0.02,0.00,26.68,30.09,32.63,13.74,46.83,1020.52,2016.89,3427.40,3061.03,3524.11,599.94,590.92,1.72,0000 0000 0000 0000 000000
2018-08-03 03:42:41,-0.04,0.02,0.00,26.71,30.12,32.69,13.80,46.89,1020.52,2016.43,3427.01,3060.89,3523.98,600.10,590.97,1.77,0000 0000 0000 0000 000000
2018-08-03 03:47:42,-0.00,0.02,0.00,26.73,30.15,32.71,13.67,46.76,1020.52,2016.14,3426.98,3060.29,3523.79,599.85,590.75,1.82,0000 0000 0000 0000 000000
2018-08-03 03:52:43,0.01,0.02,0.00,26.76,30.17,32.74,13.82,46.80,1020.52,2016.08,3426.62,3060.03,3523.16,600.49,591.25,1.87,0000 0000 0000 0000 000000
2018-08-03 03:57:44,0.00,0.02,0.00,26.79,30.20,32.75,13.79,46.78,1020.54,2016.00,3426.05,3060.00,3523.00,599.87,590.61,1.92,0000 0000 0000 0000 000000
2018-08-03 04:02:46,0.00,0.02,0.00,26.81,30.22,32.79,13.66,46.68,1020.53,2016.00,3426.00,3059.99,3522.93,599.56,590.25,1.97,0000 0000 0000 0000 000000
2018-08-03 04:07:47,0.02,0.02,0.00,26.85,30.25,32.80,13.85,46.68,1020.54,2016.00,3425.89,3059.72,3522.24,600.46,591.07,2.02,0000 0000 0000 0000 000000
2018-08-03 04:12:48,0.03,0.03,0.00,26.88,30.28,32.82,13.77,46.76,1020.53,2015.99,3425.17,3059.08,3522.00,600.06,590.59,2.07,0000 0000 0000 0000 000000
2018-08-03 04:17:50,0.00,0.03,0.00,26.90,30.31,32.85,13.78,46.71,1020.52,2015.98,3425.00,3059.00,3521.94,599.85,590.40,2.12,0000 0000 0000 0000 000000
2018-08-03 04:22:51,-0.00,0.03,0.00,26.92,30.33,32.87,13.79,46.47,1020.53,2015.92,3424.99,3059.00,3521.52,600.31,590.89,2.17,0000 0000 0000 0000 000000
2018-08-03 04:27:52,-0.02,0.03,0.00,26.96,30.36,32.91,13.74,46.48,1020.55,2015.61,3424.91,3058.90,3521.04,599.82,590.28,2.22,0000 0000 0000 0000 000000
2018-08-03 04:32:53,-0.01,0.03,0.00,26.99,30.39,32.93,13.73,46.41,1020.55,2015.20,3424.27,3058.33,3521.00,599.78,590.17,2.27,0000 0000 0000 0000 000000
2018-08-03 04:37:55,-0.00,0.02,0.00,27.01,30.42,32.95,13.79,46.45,1020.58,2015.04,3424.01,3058.02,3520.90,600.35,590.68,2.32,0000 0000 0000 0000 000000
2018-08-03 04:42:56,0.00,0.03,0.00,27.02,30.45,32.99,13.75,46.19,1020.57,2015.01,3424.00,3058.00,3520.29,599.85,590.18,2.37,0000 0000 0000 0000 000000
2018-08-03 04:47:57,0.00,0.03,0.00,27.05,30.47,33.01,13.73,46.37,1020.55,2015.00,3423.93,3057.98,3520.02,599.85,590.08,2.42,0000 0000 0000 0000 000000
2018-08-03 04:52:59,0.01,0.03,0.00,27.07,30.50,33.05,13.76,46.31,1020.54,2014.98,3423.39,3057.84,3520.00,599.83,590.05,2.47,0000 0000 0000 0000 000000
2018-08-03 04:58:00,0.01,0.03,0.00,27.11,30.53,33.09,13.82,46.27,1020.54,2014.95,3423.02,3057.23,3519.89,600.35,590.61,2.52,0000 0000 0000 0000 000000
2018-08-03 05:03:01,-0.01,0.03,0.00,27.14,30.56,33.12,13.75,46.20,1020.54,2014.73,3423.00,3057.01,3519.23,599.76,589.79,2.57,0000 0000 0000 0000 000000
2018-08-03 05:08:02,-0.02,0.03,0.00,27.16,30.59,33.13,13.73,46.11,1020.53,2014.50,3422.91,3057.00,3519.01,599.90,589.92,2.62,0000 0000 0000 0000 000000
2018-08-03 05:13:03,-0.01,0.02,0.00,27.18,30.61,33.17,13.83,46.23,1020.53,2014.13,3422.30,3056.98,3519.00,600.33,590.17,2.67,0000 0000 0000 0000 000000
2018-08-03 05:18:04,0.01,0.03,0.00,27.22,30.64,33.17,13.70,46.17,1020.54,2014.02,3422.00,3056.42,3518.88,599.79,589.75,2.72,0000 0000 0000 0000 000000
2018-08-03 05:23:06,0.01,0.03,0.00,27.23,30.67,33.22,13.82,46.14,1020.54,2014.00,3421.99,3056.10,3518.30,599.96,589.92,2.77,0000 0000 0000 0000 000000
2018-08-03 05:28:07,0.00,0.03,0.00,27.26,30.70,33.24,13.76,45.97,1020.54,2014.00,3421.88,3056.01,3518.02,600.04,589.89,2.82,0000 0000 0000 0000 000000
2018-08-03 05:33:08,0.01,0.03,0.00,27.29,30.73,33.27,13.73,45.81,1020.54,2013.98,3421.27,3055.99,3517.99,599.79,589.64,2.87,0000 0000 0000 0000 000000
2018-08-03 05:38:10,0.01,0.03,0.00,27.32,30.76,33.29,13.72,45.85,1020.55,2013.96,3421.01,3055.96,3517.80,599.83,589.50,2.92,0000 0000 0000 0000 000000
2018-08-03 05:43:10,0.01,0.03,0.00,27.34,30.79,33.32,13.76,45.76,1020.55,2013.94,3421.00,3055.78,3517.34,600.17,589.88,2.97,0000 0000 0000 0000 000000
2018-08-03 05:48:12,-0.01,0.03,0.00,27.35,30.81,33.35,13.73,45.71,1020.55,2013.74,3420.98,3055.24,3517.02,600.04,589.69,3.02,0000 0000 0000 0000 000000
2018-08-03 05:53:12,-0.01,0.03,0.00,27.39,30.85,33.38,13.80,45.76,1020.54,2013.50,3420.82,3055.03,3517.00,600.06,589.65,3.07,0000 0000 0000 0000 000000
2018-08-03 05:58:13,-0.02,0.03,0.00,27.42,30.87,33.40,13.73,45.74,1020.54,2013.09,3420.10,3055.00,3516.81,599.72,589.31,3.12,0000 0000 0000 0000 000000
2018-08-03 06:03:14,0.00,0.03,0.00,27.45,30.90,33.44,13.69,45.72,1020.54,2013.01,3420.00,3054.87,3516.17,599.65,589.12,3.17,0000 0000 0000 0000 000000
2018-08-03 06:08:16,0.08,0.03,0.00,27.46,30.93,33.47,13.75,45.98,1020.54,2013.00,3419.25,3053.67,3515.25,600.15,589.60,3.22,0000 0000 0000 0000 000000
2018-08-03 06:13:18,0.18,0.04,0.00,27.49,30.96,33.47,13.71,45.88,1020.69,2013.00,3415.95,3050.24,3511.27,599.83,589.35,3.27,0000 0000 0000 0000 000000
2018-08-03 06:18:19,0.02,0.04,0.00,27.52,30.99,33.51,13.73,45.67,1020.76,2012.96,3414.92,3049.83,3510.70,600.05,589.62,3.32,0000 0000 0000 0000 000000
2018-08-03 06:23:20,0.07,0.04,0.00,27.55,31.01,33.51,13.85,45.67,1020.68,2012.88,3413.83,3048.23,3509.07,600.36,589.73,3.37,0000 0000 0000 0000 000000
2018-08-03 06:28:21,-0.03,0.04,0.00,27.57,31.04,33.54,13.72,45.58,1020.71,2012.40,3413.07,3047.99,3508.39,600.29,589.56,3.42,0000 0000 0000 0000 000000
2018-08-03 06:33:22,0.06,0.05,0.00,27.60,31.07,33.58,13.78,45.75,1020.63,2012.09,3411.49,3047.00,3507.27,599.98,589.18,3.47,0000 0000 0000 0000 000000
2018-08-03 06:38:24,0.04,0.05,0.00,27.63,31.10,33.60,13.70,45.66,1020.66,2012.01,3410.35,3046.14,3506.54,599.67,588.91,3.52,0000 0000 0000 0000 000000
2018-08-03 06:43:25,0.02,0.05,0.00,27.66,31.12,33.63,13.69,45.62,1020.58,2012.00,3409.33,3045.85,3505.92,599.61,588.77,3.57,0000 0000 0000 0000 000000
2018-08-03 06:48:26,0.04,0.05,0.00,27.69,31.16,33.64,13.72,45.62,1020.54,2012.00,3408.36,3045.09,3505.12,599.93,588.91,3.62,0000 0000 0000 0000 000000
2018-08-03 06:53:27,0.00,0.05,0.00,27.72,31.18,33.67,13.72,45.66,1020.54,2012.00,3408.00,3045.00,3504.98,599.73,588.69,3.67,0000 0000 0000 0000 000000
2018-08-03 06:58:29,0.01,0.05,0.00,27.74,31.21,33.71,13.58,45.52,1020.55,2011.97,3407.89,3044.85,3504.67,599.97,588.87,3.72,0000 0000 0000 0000 000000
2018-08-03 07:03:30,0.03,0.05,0.00,27.78,31.24,33.74,13.82,45.60,1020.57,2011.92,3407.18,3044.19,3504.04,600.00,588.83,3.77,0000 0000 0000 0000 000000
2018-08-03 07:08:31,-0.03,0.05,0.00,27.81,31.26,33.76,13.74,45.35,1020.57,2011.68,3407.01,3044.02,3504.00,600.10,588.84,3.82,0000 0000 0000 0000 000000
2018-08-03 07:13:32,-0.03,0.05,0.00,27.85,31.29,33.80,13.66,45.38,1020.66,2011.20,3406.98,3044.00,3503.93,599.87,588.70,3.87,0000 0000 0000 0000 000000
2018-08-03 07:18:33,0.02,0.05,0.00,27.88,31.32,33.80,13.70,45.33,1020.75,2011.03,3406.28,3043.73,3503.16,599.98,588.74,3.92,0000 0000 0000 0000 000000
2018-08-03 07:23:35,0.01,0.05,0.00,27.91,31.36,33.84,13.65,45.38,1020.65,2011.00,3406.01,3043.14,3502.96,599.93,588.68,3.97,0000 0000 0000 0000 000000
2018-08-03 07:28:36,0.02,0.05,0.00,27.94,31.37,33.87,13.65,45.31,1020.68,2011.00,3405.72,3043.00,3502.53,599.96,588.55,4.02,0000 0000 0000 0000 000000
2018-08-03 07:33:37,0.04,0.06,0.00,27.96,31.41,33.90,13.72,45.46,1020.64,2011.00,3404.69,3042.55,3501.77,600.00,588.38,4.07,0000 0000 0000 0000 000000
2018-08-03 07:38:38,0.05,0.06,0.00,28.01,31.43,33.93,13.67,45.36,1020.83,2010.96,3403.23,3041.68,3500.95,599.81,588.47,4.12,0000 0000 0000 0000 000000
2018-08-03 07:43:40,0.01,0.06,0.00,28.04,31.46,33.97,13.72,45.40,1020.97,2010.83,3402.77,3041.07,3500.30,600.21,588.81,4.18,0000 0000 0000 0000 000000
2018-08-03 07:48:41,-0.03,0.06,0.00,28.07,31.49,33.98,13.70,45.30,1020.96,2010.43,3402.20,3041.00,3500.02,599.80,588.35,4.23,0000 0000 0000 0000 000000
2018-08-03 07:53:42,-0.01,0.06,0.00,28.10,31.52,34.02,13.66,45.34,1020.99,2010.06,3402.00,3040.96,3499.94,599.96,588.35,4.28,0000 0000 0000 0000 000000
2018-08-03 07:58:43,0.04,0.06,0.00,28.13,31.56,34.05,13.71,45.35,1021.00,2010.02,3401.62,3040.34,3499.21,599.80,588.19,4.33,0000 0000 0000 0000 000000
2018-08-03 08:03:45,0.01,0.06,0.00,28.17,31.58,34.09,13.72,45.29,1021.00,2010.00,3401.04,3040.01,3498.93,600.15,588.37,4.38,0000 0000 0000 0000 000000
2018-08-03 08:08:46,0.07,0.06,0.00,28.21,31.61,34.10,13.64,45.29,1020.99,2010.00,3400.35,3039.23,3497.75,600.03,588.31,4.43,0000 0000 0000 0000 000000
2018-08-03 08:13:47,0.03,0.07,0.00,28.25,31.65,34.12,13.66,45.26,1021.00,2009.97,3399.15,3038.05,3496.94,599.67,587.89,4.48,0000 0000 0000 0000 000000
2018-08-03 08:18:48,0.03,0.07,0.00,28.28,31.68,34.15,13.66,45.38,1021.01,2009.90,3398.78,3037.73,3496.17,600.33,588.28,4.53,0000 0000 0000 0000 000000
2018-08-03 08:23:50,-0.01,0.07,0.00,28.31,31.71,34.21,13.72,45.26,1021.01,2009.42,3397.76,3036.84,3495.14,600.32,588.44,4.58,0000 0000 0000 0000 000000
2018-08-03 08:28:51,0.06,0.07,0.00,28.33,31.74,34.24,13.65,45.25,1021.01,2009.05,3396.00,3035.72,3493.77,599.89,587.95,4.63,0000 0000 0000 0000 000000
2018-08-03 08:33:53,0.07,0.07,0.00,28.36,31.76,34.27,13.64,45.23,1021.01,2009.00,3394.38,3034.45,3492.44,599.78,587.58,4.68,0000 0000 0000 0000 000000
2018-08-03 08:38:54,0.02,0.07,0.00,28.38,31.80,34.29,13.68,45.11,1021.01,2009.00,3393.20,3033.99,3491.88,600.08,587.95,4.73,0000 0000 0000 0000 000000
2018-08-03 08:43:55,0.03,0.08,0.00,28.42,31.83,34.32,13.60,45.20,1021.02,2009.00,3392.99,3033.57,3491.17,599.89,587.76,4.78,0000 0000 0000 0000 000000
2018-08-03 08:48:56,0.01,0.08,0.00,28.44,31.86,34.36,13.79,45.42,1021.02,2008.98,3392.75,3033.06,3491.00,600.38,588.18,4.83,0000 0000 0000 0000 000000
2018-08-03 08:53:57,-0.00,0.08,0.00,28.46,31.89,34.40,13.72,45.36,1021.02,2008.87,3392.09,3033.00,3490.69,599.90,587.75,4.88,0000 0000 0000 0000 000000
2018-08-03 08:58:59,-0.04,0.08,0.00,28.47,31.91,34.41,13.69,45.27,1021.03,2008.42,3391.99,3032.91,3490.07,599.87,587.54,4.93,0000 0000 0000 0000 000000
2018-08-03 09:03:59,0.00,0.08,0.00,28.49,31.94,34.43,13.66,45.33,1021.03,2008.11,3391.74,3032.41,3489.99,599.89,587.68,4.98,0000 0000 0000 0000 000000
2018-08-03 09:09:00,0.01,0.08,0.00,28.52,31.97,34.46,13.70,45.33,1021.06,2008.01,3391.10,3032.02,3489.74,600.12,587.81,5.03,0000 0000 0000 0000 000000
2018-08-03 09:14:01,0.00,0.08,0.00,28.55,32.00,34.49,13.66,45.30,1021.05,2008.00,3391.00,3032.00,3489.08,600.17,587.83,5.08,0000 0000 0000 0000 000000
2018-08-03 09:19:02,0.00,0.08,0.00,28.58,32.03,34.52,13.61,45.32,1021.04,2008.00,3390.95,3031.97,3489.00,599.31,586.81,5.13,0000 0000 0000 0000 000000
2018-08-03 09:24:04,0.03,0.08,0.00,28.61,32.06,34.55,13.72,45.27,1021.22,2008.00,3390.23,3031.44,3488.78,600.27,587.92,5.18,0000 0000 0000 0000 000000
2018-08-03 09:29:05,0.02,0.08,0.00,28.64,32.08,34.56,13.72,45.24,1021.30,2007.98,3389.80,3031.01,3488.06,600.14,587.70,5.23,0000 0000 0000 0000 000000
2018-08-03 09:34:06,0.02,0.08,0.00,28.67,32.11,34.61,13.66,45.37,1021.23,2007.94,3389.04,3030.76,3487.80,599.74,587.25,5.28,0000 0000 0000 0000 000000
2018-08-03 09:39:08,0.01,0.08,0.00,28.70,32.14,34.62,13.69,45.21,1021.15,2007.77,3388.31,3030.06,3486.99,600.40,587.78,5.33,0000 0000 0000 0000 000000
2018-08-03 09:44:09,0.02,0.08,0.00,28.73,32.16,34.63,13.65,45.19,1021.19,2007.41,3387.32,3029.49,3486.14,600.05,587.55,5.38,0000 0000 0000 0000 000000
2018-08-03 09:49:10,0.01,0.08,0.00,28.76,32.20,34.68,13.65,45.26,1021.26,2007.10,3386.21,3028.99,3485.33,600.19,587.53,5.43,0000 0000 0000 0000 000000
2018-08-03 09:54:11,0.01,0.08,0.00,28.78,32.22,34.71,13.63,45.23,1021.31,2007.02,3386.00,3028.67,3485.00,599.89,587.11,5.48,0000 0000 0000 0000 000000
2018-08-03 09:59:12,0.01,0.08,0.00,28.81,32.25,34.72,13.68,45.26,1021.26,2007.00,3385.81,3028.17,3484.95,600.19,587.42,5.53,0000 0000 0000 0000 000000
2018-08-03 10:04:13,0.03,0.09,0.00,28.84,32.28,34.76,13.72,45.23,1021.18,2006.99,3384.91,3027.91,3484.13,599.90,587.02,5.58,0000 0000 0000 0000 000000
2018-08-03 10:09:15,0.07,0.09,0.00,28.86,32.31,34.79,13.68,45.23,1021.24,2006.98,3383.18,3026.95,3482.98,599.72,586.82,5.63,0000 0000 0000 0000 000000
2018-08-03 10:14:16,0.03,0.09,0.00,28.89,32.34,34.81,13.61,45.17,1021.21,2006.86,3382.04,3026.09,3482.08,599.58,586.67,5.68,0000 0000 0000 0000 000000
2018-08-03 10:19:17,-0.03,0.09,0.00,28.91,32.37,34.83,13.74,45.25,1021.17,2006.51,3381.81,3026.00,3481.97,600.13,587.20,5.73,0000 0000 0000 0000 000000
2018-08-03 10:24:19,-0.01,0.09,0.00,28.93,32.40,34.85,13.67,45.24,1021.32,2006.07,3381.06,3025.96,3481.30,599.81,586.88,5.78,0000 0000 0000 0000 000000
2018-08-03 10:29:20,0.02,0.09,0.00,28.96,32.43,34.88,13.67,45.16,1021.37,2006.01,3380.99,3025.41,3481.01,599.93,586.93,5.83,0000 0000 0000 0000 000000
2018-08-03 10:34:21,0.01,0.09,0.00,28.99,32.46,34.90,13.63,45.24,1021.47,2006.00,3380.68,3025.05,3480.96,599.83,586.87,5.88,0000 0000 0000 0000 000000
2018-08-03 10:39:22,0.01,0.09,0.00,29.01,32.49,34.94,13.68,45.23,1021.48,2006.00,3380.06,3025.00,3480.48,600.31,587.33,5.93,0000 0000 0000 0000 000000
2018-08-03 10:44:24,0.00,0.09,0.00,29.02,32.51,34.99,13.58,45.21,1021.50,2005.99,3379.99,3024.98,3480.02,599.40,586.36,5.98,0000 0000 0000 0000 000000
2018-08-03 10:49:25,0.01,0.09,0.00,29.03,32.54,35.02,13.64,45.17,1021.50,2005.95,3379.67,3024.74,3479.98,600.26,587.22,6.03,0000 0000 0000 0000 000000
2018-08-03 10:54:26,0.02,0.09,0.00,28.96,32.57,35.07,13.65,45.23,1021.49,2005.84,3379.06,3024.18,3479.51,599.73,586.80,6.08,0000 0000 0000 0000 000000
2018-08-03 10:59:28,-0.03,0.09,0.00,28.87,32.59,35.13,13.73,45.10,1021.50,2005.41,3378.94,3024.01,3479.01,600.21,587.42,6.13,0000 0000 0000 0000 000000
2018-08-03 11:04:29,0.00,0.09,0.00,28.72,32.60,35.21,13.66,45.04,1021.50,2005.17,3378.21,3024.00,3478.99,599.79,587.35,6.18,0000 0000 0000 0000 000000
2018-08-03 11:09:30,0.01,0.09,0.00,28.52,32.58,35.48,13.75,45.05,1021.50,2005.23,3378.00,3024.00,3478.98,599.78,587.75,6.23,0000 0000 0000 0000 000000
2018-08-03 11:14:31,0.04,0.09,0.00,28.31,32.56,35.66,13.76,44.91,1021.50,2005.63,3378.00,3024.00,3478.99,599.84,588.19,6.28,0000 0000 0000 0000 000000
2018-08-03 11:19:32,0.01,0.10,0.00,28.12,32.53,35.66,13.69,44.91,1021.47,2005.91,3378.00,3024.08,3479.01,599.77,588.42,6.33,0000 0000 0000 0000 000000
2018-08-03 11:24:33,-0.00,0.10,0.00,27.93,32.48,35.55,13.75,45.07,1021.33,2005.98,3378.00,3024.48,3479.02,599.50,588.55,6.38,0000 0000 0000 0000 000000
2018-08-03 11:29:34,-0.02,0.09,0.00,27.77,32.43,35.40,13.82,45.08,1021.15,2005.99,3378.00,3024.94,3479.48,600.06,589.18,6.43,0000 0000 0000 0000 000000
2018-08-03 11:34:36,-0.00,0.09,0.00,27.64,32.36,35.20,13.69,44.92,1021.16,2006.01,3378.04,3024.99,3479.96,599.66,589.20,6.48,0000 0000 0000 0000 000000
2018-08-03 11:39:37,0.04,0.09,0.00,27.52,32.29,35.00,13.81,44.98,1021.08,2006.48,3378.43,3025.17,3480.00,600.12,589.81,6.53,0000 0000 0000 0000 000000
2018-08-03 11:44:38,-0.01,0.10,0.00,27.43,32.22,34.86,13.74,44.92,1021.03,2006.95,3378.97,3025.89,3480.51,599.72,589.71,6.58,0000 0000 0000 0000 000000
2018-08-03 11:49:39,0.00,0.10,0.00,27.36,32.14,34.70,13.83,44.98,1021.03,2007.00,3378.99,3026.02,3480.98,600.19,589.99,6.64,0000 0000 0000 0000 000000
2018-08-03 11:54:40,0.01,0.10,0.00,27.29,32.06,34.55,13.72,45.03,1021.02,2007.24,3379.07,3026.51,3481.11,599.67,589.75,6.69,0000 0000 0000 0000 000000
2018-08-03 11:59:42,0.02,0.10,0.00,27.22,31.98,34.48,13.78,45.07,1021.02,2007.92,3379.72,3026.99,3481.91,599.97,590.19,6.74,0000 0000 0000 0000 000000
2018-08-03 12:04:43,-0.02,0.10,0.00,27.15,31.90,34.39,13.89,45.22,1021.01,2008.01,3379.99,3027.53,3482.20,600.23,590.48,6.79,0000 0000 0000 0000 000000
2018-08-03 12:09:44,0.02,0.10,0.00,27.10,31.82,34.29,13.82,45.13,1021.01,2008.30,3380.14,3027.98,3482.95,600.08,590.56,6.84,0000 0000 0000 0000 000000
2018-08-03 12:14:46,0.01,0.10,0.00,27.05,31.73,34.19,13.74,45.17,1021.01,2008.93,3380.88,3028.43,3483.11,599.79,590.37,6.89,0000 0000 0000 0000 000000
2018-08-03 12:19:47,-0.02,0.10,0.00,27.00,31.66,34.13,13.78,45.13,1021.01,2009.00,3380.99,3028.96,3483.86,599.78,590.38,6.94,0000 0000 0000 0000 000000
2018-08-03 12:24:48,0.03,0.10,0.00,26.96,31.58,34.03,13.74,45.14,1021.01,2009.30,3381.11,3029.10,3484.04,599.89,590.59,6.99,0000 0000 0000 0000 000000
2018-08-03 12:29:49,0.00,0.10,0.00,26.92,31.50,33.96,13.88,45.27,1021.01,2009.93,3381.81,3029.89,3484.77,599.98,590.83,7.04,0000 0000 0000 0000 000000
2018-08-03 12:34:50,0.00,0.10,0.00,26.89,31.43,33.89,13.80,45.21,1021.01,2009.99,3381.99,3029.99,3485.00,600.25,591.07,7.09,0000 0000 0000 0000 000000
2018-08-03 12:39:52,0.02,0.10,0.00,26.87,31.36,33.81,13.81,45.21,1021.00,2010.29,3382.09,3030.52,3485.56,600.12,591.11,7.14,0000 0000 0000 0000 000000
2018-08-03 12:44:53,0.02,0.10,0.00,26.84,31.30,33.74,13.85,45.27,1020.99,2010.93,3382.82,3030.99,3486.00,600.08,591.03,7.19,0000 0000 0000 0000 000000
2018-08-03 12:49:54,-0.00,0.10,0.00,26.82,31.23,33.68,13.85,45.23,1020.99,2010.99,3382.98,3031.12,3486.15,600.17,591.19,7.24,0000 0000 0000 0000 000000
2018-08-03 12:54:55,-0.02,0.10,0.00,26.81,31.17,33.64,13.84,45.32,1020.95,2011.07,3383.02,3031.87,3486.87,600.10,591.06,7.29,0000 0000 0000 0000 000000
2018-08-03 12:59:57,0.06,0.10,0.00,26.79,31.11,33.61,13.83,45.43,1020.72,2011.71,3383.54,3032.01,3487.03,600.09,590.99,7.34,0000 0000 0000 0000 000000
2018-08-03 13:04:58,-0.02,0.10,0.00,26.77,31.05,33.58,13.75,45.28,1020.62,2011.98,3383.97,3032.38,3487.68,599.81,590.77,7.39,0000 0000 0000 0000 000000
2018-08-03 13:09:59,-0.01,0.10,0.00,26.75,31.00,33.55,13.75,45.31,1020.60,2012.00,3383.99,3032.95,3487.99,599.92,590.85,7.44,0000 0000 0000 0000 000000
2018-08-03 13:15:01,0.01,0.10,0.00,26.75,30.94,33.53,13.82,45.41,1020.63,2012.17,3384.15,3033.02,3488.20,600.19,591.14,7.49,0000 0000 0000 0000 000000